"read_dt","SO2 (ppb)","flags","PMT voltage (V)","lamp voltage (V)","lamp intensity (Hz)","internal temp (C)","react chamber temp (C)","sample flow (l/min)","pres (mmHg)","SO2 bkg (ppb)","SO2 coefficient"
2013-12-21 00:00:00,2641E-4,5C000000,-0724,0971,10871,026.4,045.3,0.398,746.5,01.17,0.508
2013-12-21 00:01:00,1962E-4,5C000000,-0724,0972,10857,026.3,045.3,0.397,746.6,01.17,0.508
2013-12-21 00:02:00,1794E-4,5C000000,-0724,0971,10900,026.3,045.3,0.397,746.5,01.17,0.508
2013-12-21 00:03:00,3041E-4,5C000000,-0724,0971,10876,026.3,045.3,0.397,746.5,01.17,0.508
2013-12-21 00:04:00,2804E-4,5C000000,-0724,0971,10805,026.3,045.3,0.397,746.5,01.17,0.508
2013-12-21 00:05:00,2021E-4,5C000000,-0724,0971,10779,026.3,045.3,0.397,746.5,01.17,0.508
2013-12-21 00:06:00,2349E-4,5C000000,-0724,0971,10810,026.4,045.3,0.397,746.5,01.17,0.508
2013-12-21 00:07:00,1812E-4,5C000000,-0724,0973,10780,026.4,045.3,0.398,746.5,01.17,0.508
2013-12-21 00:08:00,1820E-4,5C000000,-0724,0972,10721,026.3,045.3,0.397,746.5,01.17,0.508
2013-12-21 00:09:00,2582E-4,5C000000,-0724,0971,10944,026.3,045.3,0.397,746.6,01.17,0.508
2013-12-21 00:10:00,2478E-4,5C000000,-0724,0971,10965,026.3,045.3,0.398,746.6,01.17,0.508
2013-12-21 00:11:00,2626E-4,5C000000,-0724,0971,10762,026.3,045.3,0.397,746.6,01.17,0.508
2013-12-21 00:12:00,2118E-4,5C000000,-0724,0971,10830,026.4,045.3,0.397,746.6,01.17,0.508
2013-12-21 00:13:00,1582E-4,5C000000,-0724,0972,10785,026.4,045.3,0.397,746.6,01.17,0.508
2013-12-21 00:14:00,1922E-4,5C000000,-0724,0971,10790,026.3,045.3,0.398,746.6,01.17,0.508
2013-12-21 00:15:00,2794E-4,5C000000,-0724,0971,10876,026.3,045.3,0.397,746.6,01.17,0.508
2013-12-21 00:16:00,1632E-4,5C000000,-0724,0971,10862,026.3,045.3,0.397,746.6,01.17,0.508
2013-12-21 00:17:00,1899E-4,5C000000,-0724,0971,10938,026.4,045.3,0.397,746.6,01.17,0.508
2013-12-21 00:18:00,2809E-4,5C000000,-0724,0972,10909,026.3,045.3,0.398,746.6,01.17,0.508
2013-12-21 00:19:00,3074E-4,5C000000,-0724,0972,10793,026.3,045.3,0.397,746.6,01.17,0.508
2013-12-21 00:20:00,1850E-4,5C000000,-0724,0971,10644,026.4,045.3,0.397,746.6,01.17,0.508
2013-12-21 00:21:00,2489E-4,5C000000,-0724,0971,10777,026.3,045.3,0.398,746.6,01.17,0.508
2013-12-21 00:22:00,2147E-4,5C000000,-0724,0971,10909,026.3,045.2,0.397,746.5,01.17,0.508
2013-12-21 00:23:00,2149E-4,5C000000,-0724,0971,10855,026.3,045.3,0.397,746.6,01.17,0.508
2013-12-21 00:24:00,2626E-4,5C000000,-0724,0971,10843,026.3,045.3,0.397,746.5,01.17,0.508
2013-12-21 00:25:00,1536E-4,5C000000,-0724,0972,10709,026.3,045.2,0.397,746.5,01.17,0.508
2013-12-21 00:26:00,1634E-4,5C000000,-0724,0972,10725,026.3,045.3,0.397,746.6,01.17,0.508
2013-12-21 00:27:00,2122E-4,5C000000,-0724,0972,10943,026.3,045.3,0.397,746.6,01.17,0.508
2013-12-21 00:28:00,1545E-4,5C000000,-0724,0971,10812,026.3,045.3,0.398,746.6,01.17,0.508
2013-12-21 00:29:00,1836E-4,5C000000,-0724,0971,10831,026.4,045.3,0.397,746.6,01.17,0.508
2013-12-21 00:30:00,1550E-4,5C000000,-0724,0972,10830,026.4,045.3,0.397,746.6,01.17,0.508
2013-12-21 00:31:00,1366E-4,5C000000,-0724,0972,10860,026.3,045.3,0.397,746.5,01.17,0.508
2013-12-21 00:32:00,2208E-4,5C000000,-0724,0972,10807,026.4,045.3,0.397,746.5,01.17,0.508
2013-12-21 00:33:00,2567E-4,5C000000,-0724,0971,10787,026.4,045.3,0.397,746.5,01.17,0.508
2013-12-21 00:34:00,1911E-4,5C000000,-0724,0971,10721,026.3,045.2,0.397,746.5,01.17,0.508
2013-12-21 00:35:00,1464E-4,5C000000,-0724,0971,10776,026.4,045.3,0.397,746.4,01.17,0.508
2013-12-21 00:36:00,2512E-4,5C000000,-0724,0971,10892,026.3,045.3,0.397,746.4,01.17,0.508
2013-12-21 00:37:00,3307E-4,5C000000,-0724,0972,10879,026.4,045.3,0.397,746.5,01.17,0.508
2013-12-21 00:38:00,2089E-4,5C000000,-0724,0972,10838,026.4,045.3,0.397,746.5,01.17,0.508
2013-12-21 00:39:00,1833E-4,5C000000,-0724,0972,10827,026.4,045.3,0.398,746.5,01.17,0.508
2013-12-21 00:40:00,1578E-4,5C000000,-0724,0971,10793,026.3,045.3,0.397,746.5,01.17,0.508
2013-12-21 00:41:00,1969E-4,5C000000,-0724,0972,10882,026.3,045.3,0.397,746.5,01.17,0.508
2013-12-21 00:42:00,1470E-4,5C000000,-0724,0972,10841,026.3,045.3,0.397,746.5,01.17,0.508
2013-12-21 00:43:00,2675E-4,5C000000,-0724,0972,10933,026.3,045.3,0.398,746.4,01.17,0.508
2013-12-21 00:44:00,1646E-4,5C000000,-0724,0972,10794,026.3,045.3,0.397,746.3,01.17,0.508
2013-12-21 00:45:00,2689E-4,5C000000,-0724,0973,10779,026.3,045.3,0.397,746.3,01.17,0.508
2013-12-21 00:46:00,1837E-4,5C000000,-0724,0972,10876,026.3,045.3,0.397,746.3,01.17,0.508
2013-12-21 00:47:00,3258E-4,5C000000,-0724,0971,10899,026.4,045.3,0.397,746.3,01.17,0.508
2013-12-21 00:48:00,1892E-4,5C000000,-0724,0971,10673,026.3,045.3,0.397,746.4,01.17,0.508
2013-12-21 00:49:00,2250E-4,5C000000,-0724,0971,10846,026.3,045.3,0.397,746.3,01.17,0.508
2013-12-21 00:50:00,2111E-4,5C000000,-0724,0972,10891,026.3,045.3,0.397,746.3,01.17,0.508
2013-12-21 00:51:00,2147E-4,5C000000,-0724,0971,10586,026.3,045.3,0.397,746.3,01.17,0.508
2013-12-21 00:52:00,1974E-4,5C000000,-0724,0971,10899,026.4,045.3,0.397,746.2,01.17,0.508
2013-12-21 00:53:00,1758E-4,5C000000,-0724,0972,10795,026.3,045.3,0.397,746.1,01.17,0.508
2013-12-21 00:54:00,2986E-4,5C000000,-0724,0972,10910,026.4,045.3,0.397,746.2,01.17,0.508
2013-12-21 00:55:00,2181E-4,5C000000,-0724,0971,10944,026.3,045.3,0.397,746.1,01.17,0.508
2013-12-21 00:56:00,2935E-4,5C000000,-0724,0972,10729,026.4,045.3,0.397,746.1,01.17,0.508
2013-12-21 00:57:00,2405E-4,5C000000,-0724,0972,10833,026.4,045.3,0.397,745.9,01.17,0.508
2013-12-21 00:58:00,2614E-4,5C000000,-0724,0972,10875,026.4,045.3,0.397,746.0,01.17,0.508
2013-12-21 00:59:00,2067E-4,5C000000,-0724,0971,10716,026.3,045.3,0.397,745.8,01.17,0.508
2013-12-21 01:00:00,2395E-4,5C000000,-0724,0972,10590,026.3,045.3,0.397,745.8,01.17,0.508
2013-12-21 01:01:00,1734E-4,5C000000,-0724,0971,10848,026.3,045.3,0.397,745.8,01.17,0.508
2013-12-21 01:02:00,1824E-4,5C000000,-0724,0971,10857,026.3,045.3,0.397,745.9,01.17,0.508
2013-12-21 01:03:00,1187E-4,5C000000,-0724,0971,10796,026.3,045.3,0.397,745.9,01.17,0.508
2013-12-21 01:04:00,1837E-4,5C000000,-0724,0970,10733,026.3,045.3,0.397,746.0,01.17,0.508
2013-12-21 01:05:00,1022E-4,5C000000,-0724,0971,10934,026.3,045.3,0.397,745.9,01.17,0.508
2013-12-21 01:06:00,1680E-4,5C000000,-0724,0971,10936,026.3,045.3,0.397,745.9,01.17,0.508
2013-12-21 01:07:00,1836E-4,5C000000,-0724,0971,10900,026.3,045.3,0.397,746.0,01.17,0.508
2013-12-21 01:08:00,2127E-4,5C000000,-0724,0971,10726,026.3,045.3,0.397,746.1,01.17,0.508
2013-12-21 01:09:00,1856E-4,5C000000,-0724,0971,10633,026.3,045.3,0.398,746.1,01.17,0.508
2013-12-21 01:10:00,1413E-4,5C000000,-0724,0972,10798,026.3,045.3,0.397,746.1,01.17,0.508
2013-12-21 01:11:00,1834E-4,5C000000,-0724,0972,10944,026.3,045.3,0.397,746.1,01.17,0.508
2013-12-21 01:12:00,1090E-4,5C000000,-0724,0972,10901,026.3,045.3,0.397,746.2,01.17,0.508
2013-12-21 01:13:00,1456E-4,5C000000,-0724,0971,10840,026.3,045.3,0.397,746.1,01.17,0.508
2013-12-21 01:14:00,2112E-4,5C000000,-0724,0972,10829,026.3,045.3,0.397,746.2,01.17,0.508
2013-12-21 01:15:00,1927E-4,5C000000,-0724,0971,10819,026.3,045.3,0.397,746.2,01.17,0.508
2013-12-21 01:16:00,1560E-4,5C000000,-0724,0972,10827,026.3,045.3,0.397,746.2,01.17,0.508
2013-12-21 01:17:00,1638E-4,5C000000,-0724,0970,10873,026.3,045.3,0.398,746.3,01.17,0.508
2013-12-21 01:18:00,1899E-4,5C000000,-0724,0971,10909,026.3,045.3,0.397,746.3,01.17,0.508
2013-12-21 01:19:00,1950E-4,5C000000,-0724,0972,10783,026.3,045.3,0.397,746.4,01.17,0.508
2013-12-21 01:20:00,2278E-4,5C000000,-0724,0971,10816,026.3,045.3,0.397,746.4,01.17,0.508
2013-12-21 01:21:00,2430E-4,5C000000,-0724,0971,10707,026.3,045.3,0.398,746.3,01.17,0.508
2013-12-21 01:22:00,1731E-4,5C000000,-0724,0972,10856,026.3,045.3,0.397,746.3,01.17,0.508
2013-12-21 01:23:00,2147E-4,5C000000,-0724,0972,10942,026.3,045.3,0.397,746.3,01.17,0.508
2013-12-21 01:24:00,1320E-4,5C000000,-0724,0972,10831,026.3,045.3,0.398,746.3,01.17,0.508
2013-12-21 01:25:00,3229E-4,5C000000,-0724,0971,10835,026.3,045.3,0.397,746.3,01.17,0.508
2013-12-21 01:26:00,2005E-4,5C000000,-0724,0971,10904,026.3,045.3,0.397,746.3,01.17,0.508
2013-12-21 01:27:00,2016E-4,5C000000,-0724,0971,10757,026.3,045.3,0.397,746.3,01.17,0.508
2013-12-21 01:28:00,2616E-4,5C000000,-0724,0972,10754,026.3,045.3,0.398,746.3,01.17,0.508
2013-12-21 01:29:00,2236E-4,5C000000,-0724,0971,10884,026.3,045.3,0.397,746.3,01.17,0.508
2013-12-21 01:30:00,1183E-4,5C000000,-0724,0971,10833,026.3,045.3,0.397,746.3,01.17,0.508
2013-12-21 01:31:00,1103E-4,5C000000,-0724,0971,10730,026.3,045.3,0.398,746.3,01.17,0.508
2013-12-21 01:32:00,2323E-4,5C000000,-0724,0972,10877,026.3,045.3,0.397,746.4,01.17,0.508
2013-12-21 01:33:00,1260E-4,5C000000,-0724,0971,10728,026.3,045.3,0.397,746.4,01.17,0.508
2013-12-21 01:34:00,2739E-4,5C000000,-0724,0971,10913,026.3,045.3,0.398,746.3,01.17,0.508
2013-12-21 01:35:00,1499E-4,5C000000,-0724,0971,10813,026.3,045.3,0.398,746.3,01.17,0.508
2013-12-21 01:36:00,2320E-4,5C000000,-0724,0971,10752,026.3,045.3,0.397,746.3,01.17,0.508
2013-12-21 01:37:00,2046E-4,5C000000,-0724,0971,10761,026.3,045.3,0.397,746.3,01.17,0.508
2013-12-21 01:38:00,1362E-4,5C000000,-0724,0971,10754,026.3,045.3,0.398,746.3,01.17,0.508
2013-12-21 01:39:00,2142E-4,5C000000,-0724,0970,10846,026.3,045.3,0.397,746.3,01.17,0.508
2013-12-21 01:40:00,1807E-4,5C000000,-0724,0972,10744,026.3,045.3,0.397,746.4,01.17,0.508
2013-12-21 01:41:00,1785E-4,5C000000,-0724,0972,10821,026.3,045.3,0.397,746.4,01.17,0.508
2013-12-21 01:42:00,1758E-4,5C000000,-0724,0972,10760,026.3,045.3,0.398,746.4,01.17,0.508
2013-12-21 01:43:00,1830E-4,5C000000,-0724,0970,10904,026.3,045.3,0.397,746.3,01.17,0.508
2013-12-21 01:44:00,2524E-4,5C000000,-0724,0971,10863,026.3,045.3,0.397,746.3,01.17,0.508
2013-12-21 01:45:00,1761E-4,5C000000,-0724,0971,10621,026.2,045.3,0.398,746.4,01.17,0.508
2013-12-21 01:46:00,6720E-5,5C000000,-0724,0972,10558,026.3,045.3,0.398,746.4,01.17,0.508
2013-12-21 01:47:00,1394E-4,5C000000,-0724,0971,10965,026.2,045.3,0.397,746.5,01.17,0.508
2013-12-21 01:48:00,2032E-4,5C000000,-0724,0971,10809,026.3,045.3,0.397,746.5,01.17,0.508
2013-12-21 01:49:00,2218E-4,5C000000,-0724,0972,10758,026.3,045.3,0.398,746.5,01.17,0.508
2013-12-21 01:50:00,1746E-4,5C000000,-0724,0971,10847,026.3,045.3,0.397,746.5,01.17,0.508
2013-12-21 01:51:00,1946E-4,5C000000,-0724,0971,10817,026.3,045.3,0.397,746.5,01.17,0.508
2013-12-21 01:52:00,1705E-4,5C000000,-0724,0972,10749,026.3,045.3,0.398,746.5,01.17,0.508
2013-12-21 01:53:00,2517E-4,5C000000,-0724,0972,10639,026.3,045.3,0.398,746.5,01.17,0.508
2013-12-21 01:54:00,2278E-4,5C000000,-0724,0971,10816,026.3,045.3,0.397,746.4,01.17,0.508
2013-12-21 01:55:00,1413E-4,5C000000,-0724,0971,10839,026.3,045.3,0.397,746.3,01.17,0.508
2013-12-21 01:56:00,2164E-4,5C000000,-0724,0972,10932,026.3,045.3,0.398,746.2,01.17,0.508
2013-12-21 01:57:00,1731E-4,5C000000,-0724,0971,10725,026.3,045.3,0.397,746.2,01.17,0.508
2013-12-21 01:58:00,1816E-4,5C000000,-0724,0971,10922,026.3,045.3,0.397,746.2,01.17,0.508
2013-12-21 01:59:00,1383E-4,5C000000,-0724,0972,10799,026.3,045.3,0.398,746.2,01.17,0.508
2013-12-21 02:00:00,2339E-4,5C000000,-0724,0971,10693,026.3,045.3,0.397,746.3,01.17,0.508
2013-12-21 02:01:00,1436E-4,5C000000,-0724,0971,10810,026.3,045.2,0.397,746.3,01.17,0.508
2013-12-21 02:02:00,2181E-4,5C000000,-0724,0972,10844,026.3,045.3,0.398,746.3,01.17,0.508
2013-12-21 02:03:00,1539E-4,5C000000,-0724,0971,10778,026.3,045.3,0.398,746.3,01.17,0.508
2013-12-21 02:04:00,2567E-4,5C000000,-0724,0972,10772,026.3,045.3,0.397,746.3,01.17,0.508
2013-12-21 02:05:00,1482E-4,5C000000,-0724,0971,10749,026.3,045.3,0.397,746.3,01.17,0.508
2013-12-21 02:06:00,2279E-4,5C000000,-0724,0971,10795,026.3,045.3,0.398,746.2,01.17,0.508
2013-12-21 02:07:00,2507E-4,5C000000,-0724,0972,10810,026.3,045.3,0.397,746.3,01.17,0.508
2013-12-21 02:08:00,1340E-4,5C000000,-0724,0972,10918,026.3,045.3,0.397,746.3,01.17,0.508
2013-12-21 02:09:00,1138E-4,5C000000,-0724,0971,10838,026.3,045.3,0.398,746.4,01.17,0.508
2013-12-21 02:10:00,1212E-4,5C000000,-0724,0971,10778,026.3,045.3,0.397,746.3,01.17,0.508
2013-12-21 02:11:00,1488E-4,5C000000,-0724,0971,10726,026.3,045.3,0.397,746.4,01.17,0.508
2013-12-21 02:12:00,1775E-4,5C000000,-0724,0972,10665,026.2,045.3,0.398,746.4,01.17,0.508
2013-12-21 02:13:00,2182E-4,5C000000,-0724,0971,10881,026.3,045.3,0.397,746.4,01.17,0.508
2013-12-21 02:14:00,1701E-4,5C000000,-0724,0971,10892,026.3,045.3,0.397,746.4,01.17,0.508
2013-12-21 02:15:00,2095E-4,5C000000,-0724,0971,10842,026.3,045.3,0.398,746.4,01.17,0.508
2013-12-21 02:16:00,2079E-4,5C000000,-0724,0972,10722,026.3,045.3,0.397,746.3,01.17,0.508
2013-12-21 02:17:00,2252E-4,5C000000,-0724,0972,10984,026.3,045.3,0.397,746.3,01.17,0.508
2013-12-21 02:18:00,6899E-5,5C000000,-0724,0970,10705,026.3,045.3,0.398,746.3,01.17,0.508
2013-12-21 02:19:00,2556E-4,5C000000,-0724,0971,10803,026.3,045.3,0.397,746.3,01.17,0.508
2013-12-21 02:20:00,2013E-4,5C000000,-0724,0972,10839,026.3,045.3,0.397,746.3,01.17,0.508
2013-12-21 02:21:00,1111E-4,5C000000,-0724,0971,10990,026.3,045.3,0.398,746.2,01.17,0.508
2013-12-21 02:22:00,1411E-4,5C000000,-0724,0972,10844,026.3,045.3,0.397,746.2,01.17,0.508
2013-12-21 02:23:00,1949E-4,5C000000,-0724,0971,10889,026.3,045.3,0.397,746.3,01.17,0.508
2013-12-21 02:24:00,1680E-4,5C000000,-0724,0971,10932,026.3,045.3,0.397,746.3,01.17,0.508
2013-12-21 02:25:00,1502E-4,5C000000,-0724,0971,10766,026.3,045.3,0.397,746.3,01.17,0.508
2013-12-21 02:26:00,1913E-4,5C000000,-0724,0972,10704,026.3,045.3,0.397,746.4,01.17,0.508
2013-12-21 02:27:00,2469E-4,5C000000,-0724,0970,10778,026.3,045.3,0.397,746.4,01.17,0.508
2013-12-21 02:28:00,1217E-4,5C000000,-0724,0972,10884,026.3,045.3,0.398,746.4,01.17,0.508
2013-12-21 02:29:00,2651E-4,5C000000,-0724,0972,10890,026.3,045.3,0.397,746.5,01.17,0.508
2013-12-21 02:30:00,1261E-4,5C000000,-0724,0971,10590,026.3,045.3,0.397,746.4,01.17,0.508
2013-12-21 02:31:00,1510E-4,5C000000,-0724,0971,10705,026.3,045.3,0.398,746.5,01.17,0.508
2013-12-21 02:32:00,2335E-4,5C000000,-0724,0972,10796,026.3,045.3,0.397,746.4,01.17,0.508
2013-12-21 02:33:00,1798E-4,5C000000,-0724,0971,10716,026.3,045.3,0.397,746.4,01.17,0.508
2013-12-21 02:34:00,1187E-4,5C000000,-0724,0970,10746,026.3,045.3,0.398,746.5,01.17,0.508
2013-12-21 02:35:00,1821E-4,5C000000,-0724,0972,10839,026.3,045.3,0.397,746.5,01.17,0.508
2013-12-21 02:36:00,1541E-4,5C000000,-0724,0972,10814,026.3,045.3,0.397,746.5,01.17,0.508
2013-12-21 02:37:00,2558E-4,5C000000,-0724,0971,10789,026.3,045.3,0.398,746.5,01.17,0.508
2013-12-21 02:38:00,1442E-4,5C000000,-0724,0971,10697,026.3,045.3,0.397,746.4,01.17,0.508
2013-12-21 02:39:00,9983E-5,5C000000,-0724,0971,10835,026.3,045.3,0.397,746.5,01.17,0.508
2013-12-21 02:40:00,2040E-4,5C000000,-0724,0971,10843,026.3,045.3,0.398,746.4,01.17,0.508
2013-12-21 02:41:00,2240E-4,5C000000,-0724,0972,10832,026.3,045.3,0.397,746.4,01.17,0.508
2013-12-21 02:42:00,2572E-4,5C000000,-0724,0971,10737,026.3,045.3,0.397,746.5,01.17,0.508
2013-12-21 02:43:00,2059E-4,5C000000,-0724,0971,10802,026.3,045.3,0.398,746.5,01.17,0.508
2013-12-21 02:44:00,2114E-4,5C000000,-0724,0971,10722,026.4,045.3,0.397,746.4,01.17,0.508
2013-12-21 02:45:00,1733E-4,5C000000,-0724,0970,10832,026.4,045.3,0.397,746.4,01.17,0.508
2013-12-21 02:46:00,2881E-4,5C000000,-0724,0971,10803,026.3,045.3,0.398,746.4,01.17,0.508
2013-12-21 02:47:00,2244E-4,5C000000,-0724,0972,10711,026.3,045.3,0.397,746.5,01.17,0.508
2013-12-21 02:48:00,2209E-4,5C000000,-0724,0972,10865,026.3,045.3,0.397,746.4,01.17,0.508
2013-12-21 02:49:00,2092E-4,5C000000,-0724,0971,10773,026.4,045.3,0.398,746.4,01.17,0.508
2013-12-21 02:50:00,1492E-4,5C000000,-0724,0971,10920,026.3,045.3,0.397,746.4,01.17,0.508
2013-12-21 02:51:00,2793E-4,5C000000,-0724,0972,10795,026.3,045.3,0.397,746.4,01.17,0.508
2013-12-21 02:52:00,1779E-4,5C000000,-0724,0971,10844,026.4,045.3,0.398,746.4,01.17,0.508
2013-12-21 02:53:00,1854E-4,5C000000,-0724,0971,10916,026.4,045.3,0.398,746.4,01.17,0.508
2013-12-21 02:54:00,2391E-4,5C000000,-0724,0972,10852,026.3,045.3,0.397,746.4,01.17,0.508
2013-12-21 02:55:00,1840E-4,5C000000,-0724,0972,10743,026.3,045.3,0.397,746.3,01.17,0.508
2013-12-21 02:56:00,2390E-4,5C000000,-0724,0971,10813,026.4,045.3,0.397,746.3,01.17,0.508
2013-12-21 02:57:00,1502E-4,5C000000,-0724,0971,10863,026.4,045.3,0.397,746.2,01.17,0.508
2013-12-21 02:58:00,2020E-4,5C000000,-0724,0971,10765,026.4,045.3,0.397,746.1,01.17,0.508
2013-12-21 02:59:00,1949E-4,5C000000,-0724,0972,10836,026.4,045.3,0.397,746.2,01.17,0.508
2013-12-21 03:00:00,2274E-4,5C000000,-0724,0971,10806,026.4,045.3,0.397,746.2,01.17,0.508
2013-12-21 03:01:00,2281E-4,5C000000,-0724,0971,10719,026.3,045.3,0.397,746.1,01.17,0.508
2013-12-21 03:02:00,1657E-4,5C000000,-0724,0971,10855,026.3,045.3,0.397,746.1,01.17,0.508
2013-12-21 03:03:00,2031E-4,5C000000,-0724,0972,10891,026.3,045.3,0.398,746.1,01.17,0.508
2013-12-21 03:04:00,2038E-4,5C000000,-0724,0972,10811,026.4,045.3,0.397,746.2,01.17,0.508
2013-12-21 03:05:00,2229E-4,5C000000,-0724,0972,10694,026.4,045.3,0.397,746.2,01.17,0.508
2013-12-21 03:06:00,1939E-4,5C000000,-0724,0972,10715,026.3,045.3,0.398,746.2,01.17,0.508
2013-12-21 03:07:00,1927E-4,5C000000,-0724,0972,10815,026.3,045.3,0.397,746.1,01.17,0.508
2013-12-21 03:08:00,1605E-4,5C000000,-0724,0971,10822,026.3,045.3,0.397,746.1,01.17,0.508
2013-12-21 03:09:00,2070E-4,5C000000,-0724,0971,10942,026.3,045.3,0.398,746.1,01.17,0.508
2013-12-21 03:10:00,1742E-4,5C000000,-0724,0971,10818,026.3,045.3,0.397,746.1,01.17,0.508
2013-12-21 03:11:00,1350E-4,5C000000,-0724,0972,10809,026.3,045.3,0.397,746.1,01.17,0.508
2013-12-21 03:12:00,1868E-4,5C000000,-0724,0971,10903,026.3,045.3,0.398,746.1,01.17,0.508
2013-12-21 03:13:00,1834E-4,5C000000,-0724,0971,10764,026.3,045.3,0.397,746.1,01.17,0.508
2013-12-21 03:14:00,1572E-4,5C000000,-0724,0971,10849,026.3,045.3,0.397,746.1,01.17,0.508
2013-12-21 03:15:00,1075E-4,5C000000,-0724,0970,10939,026.3,045.3,0.398,746.1,01.17,0.508
2013-12-21 03:16:00,2369E-4,5C000000,-0724,0970,10863,026.3,045.3,0.397,746.1,01.17,0.508
2013-12-21 03:17:00,2059E-4,5C000000,-0724,0972,10572,026.3,045.3,0.397,746.1,01.17,0.508
2013-12-21 03:18:00,1601E-4,5C000000,-0724,0971,10867,026.3,045.3,0.397,746.1,01.17,0.508
2013-12-21 03:19:00,1641E-4,5C000000,-0724,0972,10839,026.3,045.3,0.397,746.1,01.17,0.508
2013-12-21 03:20:00,2904E-4,5C000000,-0724,0972,10821,026.3,045.3,0.397,746.1,01.17,0.508
2013-12-21 03:21:00,1503E-4,5C000000,-0724,0971,10796,026.3,045.3,0.397,746.1,01.17,0.508
2013-12-21 03:22:00,2645E-4,5C000000,-0724,0972,10802,026.3,045.3,0.397,746.2,01.17,0.508
2013-12-21 03:23:00,1615E-4,5C000000,-0724,0971,10902,026.3,045.3,0.397,746.2,01.17,0.508
2013-12-21 03:24:00,2132E-4,5C000000,-0724,0971,10619,026.3,045.3,0.397,746.2,01.17,0.508
2013-12-21 03:25:00,1632E-4,5C000000,-0724,0971,10946,026.3,045.3,0.397,746.2,01.17,0.508
2013-12-21 03:26:00,1686E-4,5C000000,-0724,0971,10843,026.3,045.3,0.397,746.1,01.17,0.508
2013-12-21 03:27:00,2070E-4,5C000000,-0724,0972,10886,026.3,045.3,0.397,746.2,01.17,0.508
2013-12-21 03:28:00,1458E-4,5C000000,-0724,0970,10974,026.3,045.3,0.397,746.2,01.17,0.508
2013-12-21 03:29:00,2105E-4,5C000000,-0724,0972,10840,026.3,045.3,0.397,746.2,01.17,0.508
2013-12-21 03:30:00,2035E-4,5C000000,-0724,0971,10801,026.3,045.3,0.397,746.1,01.17,0.508
2013-12-21 03:31:00,1559E-4,5C000000,-0724,0971,10708,026.3,045.3,0.397,746.1,01.17,0.508
2013-12-21 03:32:00,2004E-4,5C000000,-0724,0972,10738,026.3,045.3,0.397,746.1,01.17,0.508
2013-12-21 03:33:00,2101E-4,5C000000,-0724,0971,10875,026.3,045.3,0.397,746.2,01.17,0.508
2013-12-21 03:34:00,1716E-4,5C000000,-0724,0972,10813,026.3,045.3,0.397,746.1,01.17,0.508
2013-12-21 03:35:00,1573E-4,5C000000,-0724,0972,10800,026.3,045.3,0.398,746.2,01.17,0.508
2013-12-21 03:36:00,3462E-4,5C000000,-0724,0971,10839,026.3,045.3,0.397,746.2,01.17,0.508
2013-12-21 03:37:00,2393E-4,5C000000,-0724,0971,10682,026.3,045.3,0.397,746.3,01.17,0.508
2013-12-21 03:38:00,6339E-5,5C000000,-0724,0971,10814,026.3,045.3,0.398,746.2,01.17,0.508
2013-12-21 03:39:00,2927E-4,5C000000,-0724,0971,10851,026.3,045.3,0.397,746.3,01.17,0.508
2013-12-21 03:40:00,1530E-4,5C000000,-0724,0972,10669,026.3,045.3,0.397,746.3,01.17,0.508
2013-12-21 03:41:00,1410E-4,5C000000,-0724,0971,10869,026.3,045.3,0.398,746.3,01.17,0.508
2013-12-21 03:42:00,2443E-4,5C000000,-0724,0972,10816,026.3,045.3,0.397,746.2,01.17,0.508
2013-12-21 03:43:00,2137E-4,5C000000,-0724,0971,10834,026.3,045.3,0.397,746.2,01.17,0.508
2013-12-21 03:44:00,1404E-4,5C000000,-0724,0973,10894,026.3,045.3,0.398,746.2,01.17,0.508
2013-12-21 03:45:00,1838E-4,5C000000,-0724,0972,10875,026.3,045.3,0.397,746.2,01.17,0.508
2013-12-21 03:46:00,1559E-4,5C000000,-0724,0972,10839,026.3,045.3,0.397,746.1,01.17,0.508
2013-12-21 03:47:00,1617E-4,5C000000,-0724,0972,10876,026.3,045.3,0.398,746.2,01.17,0.508
2013-12-21 03:48:00,1764E-4,5C000000,-0724,0972,10783,026.3,045.3,0.397,746.2,01.17,0.508
2013-12-21 03:49:00,1960E-4,5C000000,-0724,0971,10749,026.3,045.3,0.397,746.3,01.17,0.508
2013-12-21 03:50:00,1632E-4,5C000000,-0724,0972,10876,026.3,045.3,0.398,746.3,01.17,0.508
2013-12-21 03:51:00,1438E-4,5C000000,-0724,0972,10713,026.3,045.3,0.397,746.3,01.17,0.508
2013-12-21 03:52:00,1071E-4,5C000000,-0724,0971,10884,026.3,045.3,0.397,746.3,01.17,0.508
2013-12-21 03:53:00,1558E-4,5C000000,-0724,0972,10854,026.3,045.3,0.398,746.3,01.17,0.508
2013-12-21 03:54:00,1511E-4,5C000000,-0724,0972,10819,026.3,045.3,0.397,746.3,01.17,0.508
2013-12-21 03:55:00,1658E-4,5C000000,-0724,0971,10852,026.3,045.3,0.397,746.3,01.17,0.508
2013-12-21 03:56:00,1869E-4,5C000000,-0724,0972,10575,026.3,045.3,0.398,746.3,01.17,0.508
2013-12-21 03:57:00,1634E-4,5C000000,-0724,0971,10760,026.3,045.3,0.397,746.3,01.17,0.508
2013-12-21 03:58:00,1664E-4,5C000000,-0724,0971,10977,026.3,045.3,0.397,746.3,01.17,0.508
2013-12-21 03:59:00,2210E-4,5C000000,-0724,0972,10859,026.3,045.3,0.398,746.3,01.17,0.508
2013-12-21 04:00:00,2275E-4,5C000000,-0724,0971,10841,026.3,045.3,0.397,746.2,01.17,0.508
2013-12-21 04:01:00,1929E-4,5C000000,-0724,0971,10914,026.3,045.3,0.397,746.2,01.17,0.508
2013-12-21 04:02:00,7425E-5,5C000000,-0724,0972,10869,026.3,045.3,0.398,746.2,01.17,0.508
2013-12-21 04:03:00,1942E-4,5C000000,-0724,0972,10917,026.3,045.3,0.397,746.2,01.17,0.508
2013-12-21 04:04:00,2388E-4,5C000000,-0724,0971,10827,026.3,045.3,0.397,746.3,01.17,0.508
2013-12-21 04:05:00,2423E-4,5C000000,-0724,0971,10738,026.3,045.3,0.398,746.2,01.17,0.508
2013-12-21 04:06:00,1667E-4,5C000000,-0724,0971,10875,026.3,045.3,0.397,746.2,01.17,0.508
2013-12-21 04:07:00,1771E-4,5C000000,-0724,0971,10640,026.3,045.3,0.397,746.2,01.17,0.508
2013-12-21 04:08:00,1667E-4,5C000000,-0724,0972,10816,026.3,045.3,0.398,746.3,01.17,0.508
2013-12-21 04:09:00,2578E-4,5C000000,-0724,0971,10806,026.3,045.3,0.397,746.3,01.17,0.508
2013-12-21 04:10:00,1586E-4,5C000000,-0724,0970,10719,026.3,045.3,0.397,746.3,01.17,0.508
2013-12-21 04:11:00,2237E-4,5C000000,-0724,0970,10802,026.3,045.3,0.397,746.3,01.17,0.508
2013-12-21 04:12:00,2414E-4,5C000000,-0724,0971,10867,026.3,045.3,0.397,746.3,01.17,0.508
2013-12-21 04:13:00,2961E-4,5C000000,-0724,0971,10696,026.3,045.3,0.397,746.3,01.17,0.508
2013-12-21 04:14:00,2639E-4,5C000000,-0724,0971,10758,026.3,045.3,0.397,746.3,01.17,0.508
2013-12-21 04:15:00,1809E-4,5C000000,-0724,0971,10820,026.3,045.3,0.397,746.3,01.17,0.508
2013-12-21 04:16:00,1826E-4,5C000000,-0724,0972,10837,026.3,045.3,0.397,746.3,01.17,0.508
2013-12-21 04:17:00,2161E-4,5C000000,-0724,0971,10794,026.3,045.3,0.397,746.4,01.17,0.508
2013-12-21 04:18:00,2302E-4,5C000000,-0724,0970,10900,026.3,045.3,0.397,746.3,01.17,0.508
2013-12-21 04:19:00,8460E-5,5C000000,-0724,0971,10839,026.3,045.3,0.397,746.3,01.17,0.508
2013-12-21 04:20:00,1674E-4,5C000000,-0724,0971,10824,026.3,045.3,0.397,746.2,01.17,0.508